Location: Pedholt
(56.0260°N, 10.2097°E)
Time: 06:55:07
(UTC+00:00)

Spot 1 - Pass Details

Date: 14 July 2020
Orbit: 575 x 777 km, 98.7° (Epoch: 07 August)

Event Time Altitude Azimuth Distance (km) Brightness Sun altitude
Exits shadow 00:09:49 11° 156° (SSE) 2,149 6.3 -11.8°
Maximum altitude 00:14:30 80° 71° (ENE) 711 4.4 -11.6°
Drops below altitude 10° 00:19:06 10° 345° (NNW) 2,096 7.8 -11.5°
Sets 00:21:16 0° 344° (NNW) 2,981 8.7 -11.4°
